[Iaude] MPEC J160: 2016 EF28 [a=1.87,e=0.66,i=5.2,H=21.7]

mpec at marsden.cfa.harvard.edu mpec at marsden.cfa.harvard.edu
Tue May 11 10:01:32 EDT 2021


M.P.E.C. 2021-J160                                 Issued 2021 May 11, 14:00 UT

     The Minor Planet Electronic Circulars contain information on unusual
         minor planets and routine data on comets.  They are published
    on behalf of Division F of the International Astronomical Union by the
          Minor Planet Center, Smithsonian Astrophysical Observatory,
                          Cambridge, MA 02138, U.S.A.

             Prepared using the Tamkin Foundation Computer Network

                              MPC at CFA.HARVARD.EDU
            URL https://www.minorplanetcenter.net/    ISSN 1523-6714

                                   2016 EF28                                    


                           Revision to MPEC 2016-E65                            

Additional Observations:
     K16E28F  C2021 05 09.25945208 59 24.109+21 34 35.87         23.61GVEJ160T14
     K16E28F  C2021 05 09.26251608 59 24.959+21 34 32.70         23.37GVEJ160T14
     K16E28F  C2021 05 09.26558008 59 25.813+21 34 29.54         23.51GVEJ160T14
     K16E28F  C2021 05 10.25856909 04 01.487+21 17 31.97         24.16GVEJ160T14
     K16E28F  C2021 05 10.26118309 04 02.196+21 17 29.19         23.86GVEJ160T14
     K16E28F  C2021 05 10.26378209 04 02.899+21 17 26.45         23.93GVEJ160T14

Observer details:
T14 Mauna Kea-UH/Tholen NEO Follow-Up (CFHT).  Observer C. Cunningham.
    Measurer D. J. Tholen.  3.6-m f/4.1 reflector + MegaCam.

First and last observations above in comparison with prediction:
Residuals in seconds of arc (or two decimals in degrees), reference and Delta-T
210509 T14 0.03- 0.01-    210510 T14 0.03- 0.01-    MPO473431   -0.03 days

Orbital elements:
2016 EF28                                           PHA, Earth MOID = 0.0238 AU
Epoch 2020 Dec. 17.0 TT = JDT 2459200.5                 Veres
M 333.69174              (2000.0)            P               Q
n   0.38519702     Peri.  292.11617     +0.23915746     -0.96953430
a   1.8707429      Node   143.91645     +0.92071969     +0.20911249
e   0.6566958      Incl.    5.16105     +0.30834876     +0.12757430
P   2.56           H   21.7           G   0.15           U   2
Residuals in seconds of arc
160227 F51  0.1+  0.1-    160306 850  0.3-  0.1+    160312 926  0.1-  0.4+
160227 F51  0.1-  0.0     160306 850  0.2-  0.0     160313 A17  0.2-  0.0
160227 F51  0.1-  0.0     160306 850  0.1-  0.2-    160313 A17  0.1-  0.1-
160227 F51  0.0   0.1+    160306 850  0.0   0.0     160313 A17  0.2+  0.1+
160304 T05  0.0   0.1+    160306 850  0.0   0.2-    160314 G40  0.3+  0.1+
160304 T05  0.1+  0.1+    160306 850  0.2+  0.1-    160314 G40  0.3+  0.2+
160304 T05  0.1+  0.1-    160306 850  0.2+  0.4-    160314 G40  0.0   0.1+
160304 T05  0.2-  0.1+    160306 850  0.1+  0.4-    160314 G40  0.2+  0.3+
160305 850  0.0   1.2+    160306 850  0.0   0.5-    160314 I52  0.2+  0.1-
160305 850  0.3+  1.2-    160306 718  0.5+  0.1-    160314 I52  0.0   0.1-
160305 850  1.0-  0.4+    160306 718  0.4+  0.0     160314 I52  0.1+  0.1-
160305 H06  0.2+  0.0     160306 718  0.1-  0.3-    160314 I52  0.1-  0.0
160305 H06  0.2-  0.1+    160306 718  0.2+  0.3-    160314 926  0.1+  0.2-
160305 850 (0.1+  1.5+)   160306 718  0.6+  0.3-    160314 926  0.0   0.0
160305 H06  0.3+  0.1-    160306 H21  0.3+  0.2+    160314 926  0.1-  0.1+
160305 850  0.2+  0.4+    160306 H21  0.3+  0.1+    160315 H45  0.3+  0.3+
160305 H06  0.1+  0.0     160306 H21  0.2+  0.3+    160315 H45  0.4+  0.7+
160305 850  0.2+  1.0+    160306 H21  0.1+  0.1+    160315 H45  0.6+  0.2+
160305 850  0.3-  0.0     160306 H21  0.2+  0.0     160315 H45  0.8+  0.2-
160305 I52  0.1-  0.1-    160306 H21  0.3+  0.1+    160315 H45  0.6+  0.1+
160305 I52  0.0   0.2-    160306 H21  0.1+  0.1+    160315 H45  0.5+  0.5+
160305 I52  0.1-  0.1-    160306 E23  0.0   0.0     160316 926  0.1-  0.2-
160305 F51  0.2-  0.1-    160306 E23  0.1+  0.1-    160316 926  0.4+  0.1+
160305 F51  0.5+  0.1-    160306 E23  0.1+  0.0     160316 926  0.2-  0.3-
160305 F51  0.2-  0.1-    160307 850  0.5+  0.7-    160316 246  0.0   0.1-
160305 300  0.0   0.2+    160307 850  0.0   0.1-    160316 246  0.5+  0.1+
160305 300  0.0   0.2+    160307 850  0.8-  0.3-    160316 246  0.9+  0.3+
160305 300  1.1+  0.5+    160307 K74  0.1+  0.4+    160316 246  1.1+  0.1-
160305 300  0.5+  0.2+    160307 K74  0.4+  0.5+    160317 G45  0.1+  0.4+
160305 E23  0.0   0.2+    160308 T05  1.2-  0.5+    160317 G45  0.0   0.0
160305 E23  0.0   0.1-    160308 T05  0.7+  0.2-    160317 G45  0.1-  0.0
160305 E23  0.1-  0.1+    160308 T05  0.2-  0.1-    160317 G45  0.2+  0.4-
160305 C42  0.4-  0.1-    160308 T05  1.2+  1.1+    160317 H45  0.7+  0.1-
160305 C42  0.1-  0.0     160308 L04  0.1+  0.1-    160317 H45  0.3+  0.5-
160305 C42  0.4-  0.0     160308 L04  0.2-  0.2-    160317 H45  0.4+  0.5-
160305 C42  0.1+  0.1+    160308 L04  0.1-  0.1-    160317 H45  0.3+  0.6-
160305 C42  0.7-  0.0     160309 204  0.2-  0.2+    160317 H45  0.4+  0.2-
160305 C77  0.1+  0.0     160309 204  0.1-  0.1+    160317 H45  0.2+  0.4-
160305 C77  0.1-  0.1+    160309 204  0.1-  0.2+    160317 G96  0.2-  0.2+
160305 C77  0.0   0.3-    160309 204  0.1+  0.2+    160317 G96  0.1-  0.2+
160305 Z21  0.0   0.4+    160309 204  0.1+  0.4+    160317 G96  0.1-  0.3+
160305 J95  0.2-  0.3-    160309 926  0.3+  0.1+    160317 G96  0.1-  0.4+
160305 J95  0.0   0.1-    160309 926  0.2+  0.0     160317 246  0.5-  0.2+
160305 Z21  0.1-  0.2+    160309 926  0.2-  0.0     160317 246  0.3-  0.1-
160305 J95  0.1-  0.2-    160309 151  0.5-  1.0-    160317 246  0.2-  0.3+
160305 Z21  0.3+  0.2-    160309 151  0.2+  0.1-    160317 246  0.4+  0.2-
160305 Z21  0.2+  0.2+    160309 151  0.4+  0.5-    160318 H21  0.5-  0.2+
160305 Z21  0.3-  0.0     160309 K74  0.0   0.5+    160318 H21  0.3-  0.2+
160305 Z21  0.1-  0.2-    160309 K74  0.8+  0.5-    160318 H21  0.5-  0.1-
160305 Z21  0.0   0.0     160309 K74  0.2+  0.5+    160318 H21  0.8-  0.5-
160305 Z21  0.0   0.4+    160309 K74  0.7+  0.3+    160318 H21  0.2-  0.1-
160305 B49  0.0   0.4+    160309 K67  0.2-  0.0     160318 H21  0.4-  0.1+
160305 B49  0.4-  0.0     160309 K67  0.2+  0.7-    160318 H21  0.3-  0.1+
160305 B49  1.4-  0.2-    160309 K67  0.7+  0.4+    160318 703 (1.5+  0.1-)
160306 Z21  0.1-  0.0     160309 B67  0.5-  0.3-    160318 703 (1.6+  0.2+)
160306 Z21  0.1-  0.1+    160310 B67  0.4-  0.1-    160318 703  0.4+  0.0
160306 Z21  0.0   0.1-    160310 B67  0.6-  0.1-    160318 H21  0.2-  0.2+
160306 Z21  0.0   0.0     160310 926  0.1-  0.1+    160318 H21  0.1-  0.4+
160306 Z21  0.1-  0.1+    160310 926  0.0   0.2+    160318 H21  0.2-  0.0
160306 Z21  0.0   0.1+    160310 926  0.0   0.2+    160318 H21  0.3-  0.2+
160306 Z21  0.0   0.1+    160310 926  0.3-  0.1+    160327 926  0.2+  0.1+
160306 Z21  0.1-  0.2+    160310 926  0.4-  0.0     160327 926  0.3-  0.0
160306 Z21  0.0   0.2+    160310 926  0.1-  0.2-    160327 926  0.3+  0.1+
160306 Z21  0.1+  0.1+    160310 703  1.4+  0.1+    160330 F51  0.1-  0.1-
160306 Z21  0.1-  0.0     160310 703  0.4+  0.0     160330 F51  0.3-  0.1-
160306 Z21  0.0   0.2+    160310 703  0.1-  0.7+    160330 F51  0.0   0.0
160306 Z21  0.1-  0.1+    160310 926  0.2-  0.2+    160408 H21  0.3-  0.1+
160306 Z21  0.2-  0.1+    160310 926  0.5+  0.1-    160408 H21  0.2-  0.1+
160306 Z21  0.0   0.1+    160310 926  0.4-  0.6-    160408 H21  0.1-  0.1+
160306 Z21  0.1-  0.1+    160310 587  0.1+  0.1+    160413 H21  0.0   0.0
160306 850  0.3+  0.5+    160310 587  0.3+  0.7-    160413 H21  0.3-  0.1-
160306 850  0.6-  0.7+    160310 587  0.3-  0.1-    160413 H21  0.1-  0.1+
160306 850  0.1+  0.2+    160311 926  0.1+  0.1+    210509 T14  0.0   0.0
160306 850  0.5-  0.2+    160311 926  0.2-  0.2-    210509 T14  0.0   0.0
160306 850  0.4-  0.2+    160311 926  0.3+  0.4-    210509 T14  0.0   0.0
160306 850  0.6-  0.1+    160312 G40  0.2+  0.0     210510 T14  0.0   0.0
160306 850  0.1-  0.2-    160312 G40  0.0   0.1-    210510 T14  0.0   0.1-
160306 850  0.6-  0.3+    160312 G40  0.1+  0.2+    210510 T14  0.0   0.1-
160306 850  0.5-  0.0     160312 926  0.1+  0.2-
160306 850  0.4-  0.0     160312 926  0.0   0.1-

Ephemeris:
2016 EF28                a,e,i = 1.87, 0.66, 5                   q = 0.6422
Date    TT    R. A. (2000) Decl.     Delta      r    Elong.  Phase     V
2021 04 11    05 57 12.3 +25 22 56   0.7071  0.9905    68.3    70.1    23.4
...
2021 04 26    07 46 38.3 +24 49 34   0.8033  1.1544    78.4    58.6    23.6
...
2021 05 04    08 33 12.4 +23 00 48   0.8886  1.2407    81.4    53.5    23.9
...
2021 05 10    09 02 50.4 +21 21 59   0.9640  1.3044    82.7    50.2    24.1
2021 05 11    09 07 23.3 +21 04 47   0.9773  1.3149    82.8    49.7    24.1
2021 05 12    09 11 50.0 +20 47 28   0.9909  1.3253    82.9    49.2    24.1
...
2021 05 18    09 36 31.4 +19 02 09   1.0762  1.3874    83.2    46.4    24.3
...
2021 05 26    10 04 58.5 +16 42 14   1.1986  1.4681    82.7    43.2    24.6
...
2021 06 10    10 48 33.0 +12 33 25   1.4474  1.6129    79.7    38.3    25.1

A. U. Tomatic                (C) Copyright 2021 MPC           M.P.E.C. 2021-J160




More information about the Iaude mailing list